Weather History for KMTV - March, 2014

Change the Weather History Date:

Wednesday, March 12, 2014

  Actual Average (KGSO) Record (KGSO)
Temperature  
Mean Temperature 52 °F 49 °F  
Max Temperature 66 °F 60 °F 86 °F (1990)
Min Temperature 39 °F 38 °F 15 °F (1934)
Degree Days  
Heating Degree Days 12 16  
Month to date heating degree days 214  
Since 1 July heating degree days 3069  
Cooling Degree Days 0 0  
Month to date cooling degree days 0  
Year to date cooling degree days 0  
Growing Degree Days 2 (Base 50)    
Moisture  
Dew Point 44 °F    
Average Humidity 77    
Maximum Humidity 96    
Minimum Humidity 49    
Precipitation  
Precipitation 0.27 in 0.12 in 2.01 in (1968)
Month to date precipitation 1.43  
Year to date precipitation 7.45  
Snow  
Snow 0.00 in 0.00 in 5.00 in (1914)
Month to date snowfall 0.5  
Since 1 July snowfall 7.2  
Snow Depth -    
Sea Level Pressure  
Sea Level Pressure 29.50 in    
Wind  
Wind Speed 4 mph (WSW)    
Max Wind Speed 28 mph    
Max Gust Speed 46 mph    
Visibility 9 miles    
Events Rain    
T = Trace of Precipitation, MM = Missing Value Source: NWS Daily Summary

Daily Weather History Graph

Daily Weather History Graph

Search for Another Location

Airport or City:

Trip Planner

Search our weather history database for the weather conditions in past years. The results will help you decide how hot, cold, wet, or windy it might be!

Date:

Astronomy

Mar. 12, 2014 Rise Set
Actual Time 7:35 AM EDT 7:24 PM EDT
Civil Twilight 7:09 AM EDT 7:50 PM EDT
Nautical Twilight 6:39 AM EDT 8:20 PM EDT
Astronomical Twilight 6:09 AM EDT 8:50 PM EDT
Moon 3:58 PM EDT (3/12) 5:01 AM EDT (3/12)
Length of Visible Light 12h 40m
Length of Day
11h 49m
Waxing Gibbous, 85% of the Moon is Illuminated
Mar 12
Waxing Gibbous
Mar 16
Full
Mar 23
Last Quarter
Mar 30
New
Apr 7
First Quarter

Hourly Weather History & Observations

Time (EDT) Temp. Windchill Dew Point Humidity Pressure Visibility Wind Dir Wind Speed Gust Speed Precip Events Conditions
12:15 AM 44.8 °F - 37.4 °F 75% 29.70 in 10.0 mi Calm Calm - N/A   Clear
12:35 AM 44.1 °F - 37.2 °F 77% 29.69 in 10.0 mi Calm Calm - N/A   Clear
12:55 AM 44.2 °F - 37.8 °F 78% 29.69 in 10.0 mi Calm Calm - N/A   Clear
1:15 AM 44.1 °F - 37.6 °F 78% 29.68 in 10.0 mi Calm Calm - N/A   Clear
1:35 AM 44.1 °F - 37.0 °F 76% 29.67 in 10.0 mi Calm Calm - N/A   Clear
1:55 AM 43.3 °F - 37.6 °F 80% 29.66 in 10.0 mi Calm Calm - N/A   Clear
2:15 AM 43.0 °F - 37.4 °F 81% 29.66 in 10.0 mi Calm Calm - N/A   Clear
2:35 AM 42.6 °F - 37.6 °F 82% 29.65 in 10.0 mi Calm Calm - N/A   Clear
2:55 AM 42.3 °F - 37.4 °F 83% 29.64 in 10.0 mi Calm Calm - N/A   Clear
3:15 AM 43.7 °F - 37.8 °F 80% 29.63 in 10.0 mi Calm Calm - N/A   Clear
3:35 AM 43.7 °F - 39.6 °F 85% 29.61 in 10.0 mi Calm Calm - N/A   Clear
3:55 AM 44.4 °F - 39.2 °F 82% 29.60 in 10.0 mi Calm Calm - N/A   Clear
4:15 AM 44.6 °F - 40.3 °F 85% 29.59 in 10.0 mi Calm Calm - N/A   Clear
4:35 AM 45.1 °F - 39.9 °F 82% 29.59 in 10.0 mi Calm Calm - N/A   Scattered Clouds
4:55 AM 45.9 °F - 39.9 °F 80% 29.59 in 10.0 mi Calm Calm - N/A   Mostly Cloudy
5:15 AM 45.5 °F - 39.7 °F 80% 29.59 in 10.0 mi Calm Calm - N/A   Overcast
5:35 AM 45.9 °F - 39.7 °F 79% 29.58 in 10.0 mi Calm Calm - N/A   Mostly Cloudy
5:55 AM 45.3 °F - 39.4 °F 80% 29.59 in 10.0 mi Calm Calm - N/A   Scattered Clouds
6:15 AM 46.6 °F - 40.5 °F 79% 29.58 in 10.0 mi Calm Calm - N/A   Mostly Cloudy
6:35 AM 46.8 °F - 41.0 °F 80% 29.57 in 10.0 mi Calm Calm - N/A   Overcast
6:55 AM 46.8 °F - 41.4 °F 81% 29.56 in 10.0 mi Calm Calm - N/A   Light Drizzle
7:15 AM 46.8 °F - 42.4 °F 85% 29.55 in 10.0 mi Calm Calm - N/A Rain Light Rain
7:35 AM 46.6 °F - 43.3 °F 88% 29.55 in 10.0 mi Calm Calm - N/A Rain Light Rain
7:55 AM 46.2 °F - 42.6 °F 87% 29.54 in 10.0 mi Calm Calm - N/A   Overcast
8:15 AM 46.8 °F - 43.5 °F 88% 29.53 in 10.0 mi SE 3.5 mph - N/A   Overcast
8:35 AM 47.7 °F - 43.0 °F 84% 29.53 in 10.0 mi Calm Calm - N/A   Overcast
8:55 AM 50.2 °F - 46.9 °F 89% 29.53 in 10.0 mi South 3.5 mph - N/A Rain Light Rain
9:15 AM 57.0 °F - 54.1 °F 90% 29.51 in 7.0 mi SSW 4.6 mph - N/A Rain Light Rain
9:35 AM 58.1 °F - 55.4 °F 91% 29.51 in 5.0 mi SSW 3.5 mph - 0.01 in Rain Light Rain
9:55 AM 57.7 °F - 55.8 °F 93% 29.51 in 5.0 mi SSW 6.9 mph - 0.03 in Rain Light Rain
10:15 AM 57.7 °F - 56.3 °F 95% 29.50 in 4.0 mi SSW 3.5 mph - 0.02 in Rain Light Rain
10:35 AM 57.9 °F - 56.7 °F 96% 29.49 in 4.0 mi SSW 6.9 mph - 0.04 in Rain Light Rain
10:55 AM 58.1 °F - 56.8 °F 96% 29.47 in 4.0 mi South 5.8 mph - 0.06 in Rain Light Rain
11:15 AM 58.3 °F - 57.2 °F 96% 29.46 in 5.0 mi SSW 5.8 mph - 0.01 in Rain Light Rain
11:35 AM 59.0 °F - 57.7 °F 96% 29.45 in 7.0 mi SW 5.8 mph - 0.02 in Rain Rain
11:55 AM 59.2 °F - 57.7 °F 95% 29.43 in 10.0 mi SSW 5.8 mph - 0.02 in   Overcast
12:15 PM 59.5 °F - 57.9 °F 94% 29.42 in 10.0 mi SSW 4.6 mph - N/A   Overcast
12:35 PM 59.5 °F - 57.9 °F 94% 29.41 in 10.0 mi SSW 6.9 mph - N/A   Overcast
12:55 PM 59.9 °F - 57.7 °F 93% 29.40 in 10.0 mi SSW 6.9 mph - N/A Rain Light Rain
1:15 PM 59.9 °F - 57.6 °F 92% 29.38 in 10.0 mi SW 6.9 mph - N/A   Overcast
1:35 PM 60.1 °F - 57.7 °F 92% 29.37 in 10.0 mi SSW 5.8 mph - N/A   Overcast
1:55 PM 60.6 °F - 57.9 °F 91% 29.36 in 10.0 mi SW 12.7 mph 17.3 mph N/A   Overcast
2:15 PM 60.8 °F - 58.1 °F 91% 29.34 in 10.0 mi SW 5.8 mph - N/A Rain Light Rain
2:35 PM 60.8 °F - 57.7 °F 90% 29.31 in 10.0 mi SW 9.2 mph - N/A   Overcast
2:55 PM 62.8 °F - 58.1 °F 85% 29.29 in 10.0 mi SSW 5.8 mph - N/A   Overcast
3:15 PM 62.8 °F - 58.1 °F 85% 29.29 in 10.0 mi SSW 6.9 mph - N/A   Overcast
3:35 PM 63.7 °F - 58.1 °F 82% 29.27 in 10.0 mi South 3.5 mph - N/A   Overcast
3:55 PM 66.7 °F - 58.6 °F 75% 29.26 in 10.0 mi SSW 5.8 mph - N/A   Overcast
4:15 PM 66.2 °F - 57.9 °F 75% 29.25 in 10.0 mi SW 8.1 mph - N/A   Overcast
4:35 PM 66.6 °F - 57.4 °F 72% 29.25 in 10.0 mi WSW 4.6 mph - N/A Rain Rain
4:55 PM 61.5 °F - 56.7 °F 84% 29.27 in 1.8 mi West 9.2 mph 32.2 mph 0.16 in Rain Heavy Rain
5:15 PM 62.6 °F - 58.1 °F 85% 29.27 in 10.0 mi West 6.9 mph - N/A   Mostly Cloudy
5:35 PM 65.3 °F - 54.0 °F 67% 29.26 in 10.0 mi WNW 8.1 mph 18.4 mph N/A   Scattered Clouds
5:55 PM 64.2 °F - 45.1 °F 50% 29.29 in 10.0 mi WNW 12.7 mph 46.0 mph N/A   Scattered Clouds
6:15 PM 62.6 °F - 43.3 °F 49% 29.33 in 10.0 mi NW 23.0 mph 35.7 mph N/A   Scattered Clouds
6:35 PM 57.7 °F - 40.8 °F 53% 29.37 in 10.0 mi NW 27.6 mph 39.1 mph N/A   Mostly Cloudy
6:55 PM 54.0 °F - 36.5 °F 52% 29.40 in 10.0 mi NW 23.0 mph 40.3 mph N/A   Scattered Clouds
7:15 PM 50.2 °F - 32.9 °F 52% 29.45 in 10.0 mi NW 19.6 mph 43.7 mph N/A   Clear
7:35 PM 47.5 °F - 32.0 °F 55% 29.48 in 10.0 mi NW 15.0 mph 26.5 mph N/A   Clear
7:55 PM 45.3 °F 39.0 °F 29.5 °F 54% 29.51 in 10.0 mi NW 13.8 mph 33.4 mph N/A   Clear
8:15 PM 43.7 °F 39.1 °F 29.3 °F 57% 29.53 in 10.0 mi NW 8.1 mph 16.1 mph N/A   Scattered Clouds
8:35 PM 43.2 °F 35.6 °F 28.8 °F 57% 29.54 in 10.0 mi NW 16.1 mph 26.5 mph N/A   Scattered Clouds
8:55 PM 43.0 °F 34.2 °F 27.9 °F 55% 29.56 in 10.0 mi NNW 20.7 mph 29.9 mph N/A   Mostly Cloudy
9:15 PM 42.3 °F 34.1 °F 27.1 °F 55% 29.58 in 10.0 mi NW 17.3 mph 25.3 mph N/A   Overcast
9:35 PM 41.9 °F 35.0 °F 26.8 °F 55% 29.59 in 10.0 mi NW 12.7 mph 24.2 mph N/A   Overcast
9:55 PM 41.4 °F 32.7 °F 26.4 °F 55% 29.61 in 10.0 mi NW 18.4 mph 26.5 mph N/A   Overcast
10:15 PM 41.2 °F 33.7 °F 26.4 °F 56% 29.63 in 10.0 mi NW 13.8 mph 26.5 mph N/A   Overcast
10:35 PM 40.5 °F 31.8 °F 24.4 °F 53% 29.64 in 10.0 mi NW 17.3 mph 33.4 mph N/A   Overcast
10:55 PM 40.1 °F 34.7 °F 24.8 °F 54% 29.65 in 10.0 mi NW 8.1 mph 18.4 mph N/A   Overcast
11:15 PM 40.1 °F 31.3 °F 24.4 °F 54% 29.67 in 10.0 mi NW 17.3 mph 33.4 mph N/A   Overcast
11:35 PM 39.6 °F 30.6 °F 23.7 °F 53% 29.68 in 10.0 mi NW 17.3 mph 29.9 mph N/A   Mostly Cloudy
11:55 PM 39.0 °F 28.0 °F 21.7 °F 50% 29.68 in 10.0 mi NNW 25.3 mph 36.8 mph N/A   Overcast